[[{"header":{"parameterUnit":"m.s-1","parameterCategory":1,"la1":30.2991,"la2":30.254,"lo1":-89.0895,"lo2":-89.0444,"dy":0.0017,"dx":0.0017,"nx":28,"ny":28,"refTime":"2024-03-29T09:00:00:Z","depth":0,"parameterNumber":2,"parameterNumberName":"U-component_of_WINDS"},"data":[0,0,0,0,0,0,0,0,0,0,0,0,0,0,0,0,0,0,0,0,0,0,0,0,0,0,0,0,0,0,0,0,0,0,0,0,0,0,0,0,0,0,0,0,0,0,0,0,0,0,0,0,0,0,0,0,0,0,-0.6156,-0.6156,0,-0.6181,-0.6182,-0.6182,-0.6172,-0.6172,-0.6171,-0.6171,-0.6197,-0.6198,-0.62,0,0,0,0,0,0,0,0,0,0,0,0,0,-0.6098,-0.6099,-0.6156,-0.6156,-0.6156,-0.6181,-0.6182,-0.6182,-0.6172,-0.6172,-0.6171,-0.617,-0.6197,-0.6198,-0.62,0,0,0,0,0,0,0,0,0,0,0,0,0,-0.6124,-0.61,-0.6156,-0.6155,-0.6155,-0.6181,-0.6182,-0.6182,-0.6173,-0.6172,-0.6171,-0.617,-0.6196,-0.6198,-0.62,-0.6229,0,0,-0.6206,-0.6207,0,0,0,0,0,0,0,0,-0.6122,-0.6126,-0.6155,-0.6155,-0.6155,-0.6173,-0.6171,-0.6198,-0.6173,-0.6166,-0.6171,-0.617,-0.619,-0.6192,-0.6199,-0.6231,-0.6232,-0.6206,-0.6207,-0.6208,-0.6208,0,0,0,0,0,0,0,-0.612,-0.6125,-0.6166,-0.6155,-0.6155,-0.6153,-0.6155,-0.6176,-0.6183,-0.6166,-0.6166,-0.6169,-0.619,-0.6197,-0.62,-0.6232,-0.6206,-0.6208,-0.6209,-0.6209,-0.6288,-0.6289,0,0,0,0,0,0,-0.6119,-0.6123,-0.6165,-0.6167,-0.6136,-0.6155,-0.6157,-0.6168,-0.6182,-0.6184,-0.617,-0.6168,-0.6194,-0.6197,-0.62,-0.6235,-0.6208,-0.621,-0.6211,-0.6287,-0.6288,-0.6289,0,0,0,0,0,0,-0.6117,-0.6122,-0.6164,-0.6145,-0.615,-0.6156,-0.6168,-0.6169,-0.6176,-0.6185,-0.6186,-0.6176,-0.6194,-0.6198,-0.6222,-0.6236,-0.6211,-0.6212,-0.6286,-0.6287,-0.6288,-0.6305,0,0,0,0,0,0,-0.6116,-0.6122,-0.6133,-0.6145,-0.6151,-0.6185,-0.6169,-0.617,-0.618,-0.6178,-0.6191,-0.6192,-0.6193,-0.6219,-0.6224,-0.6238,-0.6214,-0.6284,-0.6286,-0.6288,-0.6303,-0.6306,-0.6309,0,0,0,0,0,-0.6114,-0.6137,-0.6134,-0.6139,-0.6165,-0.6186,-0.619,-0.619,-0.6181,-0.6192,-0.6197,-0.6192,-0.6233,-0.6222,-0.6227,-0.6242,-0.6284,-0.6286,-0.6288,-0.6301,-0.6306,-0.6309,0,0,0,0,0,0,-0.6128,-0.6139,-0.6135,-0.6163,-0.6174,-0.6185,-0.6199,-0.6195,-0.6209,-0.6207,-0.6207,-0.621,-0.6235,-0.6241,-0.6227,-0.627,-0.6257,-0.626,-0.6266,-0.627,-0.6273,-0.6271,-0.6215,0,0,0,0,0,-0.6134,-0.615,-0.6159,-0.6183,-0.6188,-0.6193,-0.6202,-0.6201,-0.6212,-0.6217,-0.6224,-0.6235,-0.625,-0.626,-0.6275,-0.6303,-0.6306,-0.6316,-0.6319,-0.6322,-0.6325,-0.634,-0.6344,-0.6296,-0.6296,-0.6296,0,0,-0.6147,-0.6155,-0.6165,-0.6186,-0.6194,-0.621,-0.6196,-0.6215,-0.6227,-0.622,-0.6243,-0.6248,-0.626,-0.6286,-0.6298,-0.6292,-0.6339,-0.6325,-0.6327,-0.6328,-0.6342,-0.6347,-0.6351,-0.6297,-0.6297,-0.6297,0,0,-0.6179,-0.6187,-0.6208,-0.6216,-0.6228,-0.6231,-0.6235,-0.6246,-0.625,-0.6273,-0.6267,-0.6282,-0.6308,-0.6317,-0.6325,-0.6359,-0.6354,-0.6364,-0.6381,-0.6395,-0.6399,-0.6402,-0.6414,-0.6418,-0.6366,-0.6366,-0.6366,0,-0.6194,-0.6219,-0.6219,-0.6237,-0.6246,-0.6239,-0.626,-0.6268,-0.6284,-0.629,-0.6283,-0.6315,-0.6323,-0.6351,-0.6359,-0.6366,-0.6371,-0.6362,-0.6398,-0.6402,-0.6405,-0.6416,-0.6421,-0.6367,-0.6367,-0.6367,-0.6367,0,-0.6236,-0.6253,-0.6268,-0.6284,-0.6294,-0.6313,-0.6316,-0.6326,-0.6325,-0.6328,-0.6351,-0.636,-0.6376,-0.6382,-0.6381,-0.641,-0.6405,-0.6398,-0.6385,-0.6411,-0.6421,-0.6425,-0.6369,-0.6369,-0.6368,-0.6368,0,0,-0.6279,-0.6293,-0.6299,-0.6305,-0.6318,-0.6331,-0.6349,-0.6364,-0.6373,-0.6384,-0.64,-0.6422,-0.6415,-0.6424,-0.6423,-0.6436,-0.6462,-0.6427,-0.6428,-0.6433,-0.6493,-0.6498,-0.6503,-0.6459,-0.6459,-0.646,-0.6492,0,-0.6312,-0.6345,-0.6344,-0.6374,-0.639,-0.6383,-0.6399,-0.6409,-0.6412,-0.6425,-0.6429,-0.6444,-0.6434,-0.644,-0.6452,-0.6456,-0.6474,-0.6454,-0.6473,-0.6473,-0.647,-0.6509,-0.6514,-0.6544,-0.6496,-0.6497,-0.6497,0,-0.6355,-0.6367,-0.6399,-0.6408,-0.6414,-0.6429,-0.6442,-0.6455,-0.6465,-0.6466,-0.6476,-0.6473,-0.6491,-0.6477,-0.6502,-0.6489,-0.6496,-0.6499,-0.6501,-0.6502,-0.6487,-0.6511,-0.6554,-0.6558,-0.6504,-0.6503,-0.6503,0,-0.6383,-0.6407,-0.6428,-0.6434,-0.6446,-0.6456,-0.6461,-0.647,-0.6479,-0.649,-0.6496,-0.651,-0.6517,-0.6528,-0.6529,-0.6518,-0.6554,-0.654,-0.6555,-0.6555,-0.6563,-0.6562,-0.6607,-0.6568,-0.6568,-0.6568,-0.6568,0,-0.642,-0.6439,-0.6441,-0.6454,-0.6475,-0.6474,-0.6495,-0.65,-0.6508,-0.6521,-0.6517,-0.653,-0.653,-0.6543,-0.6544,-0.6564,-0.6568,-0.6569,-0.6569,-0.657,-0.6569,-0.6575,-0.6572,-0.6569,-0.6569,-0.6569,-0.6568,0,-0.6454,-0.6456,-0.6479,-0.6487,-0.649,-0.6505,-0.6512,-0.6525,-0.6527,-0.6545,-0.6549,-0.6553,-0.6568,-0.6569,-0.6587,-0.6588,-0.6612,-0.661,-0.6609,-0.6608,-0.6623,-0.6621,-0.6672,-0.6679,-0.6636,-0.6636,-0.6637,0,-0.6477,-0.6492,-0.6502,-0.651,-0.6516,-0.653,-0.6539,-0.6539,-0.6548,-0.6559,-0.657,-0.6585,-0.6597,-0.6621,-0.6625,-0.6639,-0.6637,-0.6653,-0.6639,-0.6638,-0.6636,-0.6635,-0.6636,-0.6656,-0.6657,-0.6657,-0.6657,0,-0.6518,-0.6518,-0.6531,-0.6544,-0.6554,-0.6564,-0.6574,-0.6581,-0.6582,-0.6593,-0.6608,-0.6617,-0.6634,-0.6649,-0.6661,-0.6666,-0.6662,-0.6662,-0.6666,-0.6667,-0.6665,-0.6666,-0.6616,-0.6661,-0.6661,-0.666,-0.666,-0.666,-0.6548,-0.656,-0.6569,-0.6583,-0.659,-0.6598,-0.661,-0.6614,-0.6626,-0.664,-0.6639,-0.6656,-0.6664,-0.6681,-0.6687,-0.67,-0.6694,-0.67,-0.6702,-0.6703,-0.6705,-0.6663,-0.6702,-0.6702,-0.6702,-0.6702,-0.6702,0,-0.6588,-0.6593,-0.6606,-0.6619,-0.663,-0.6624,-0.6634,-0.6644,-0.6658,-0.6667,-0.6678,-0.6695,-0.6708,-0.6713,-0.6726,-0.6735,-0.6734,-0.6739,-0.6738,-0.6739,-0.6709,-0.6704,-0.674,-0.674,-0.674,-0.674,-0.674,-0.674,-0.6611,-0.6631,-0.6632,-0.6655,-0.666,-0.6676,-0.6682,-0.669,-0.6696,-0.6715,-0.6726,-0.6729,-0.6736,-0.6749,-0.6761,-0.6762,-0.6767,-0.6773,-0.6774,-0.6745,-0.6741,-0.6738,-0.6733,-0.6775,-0.6775,-0.6802,-0.6803,-0.6803]},{"header":{"parameterUnit":"m.s-1","parameterCategory":1,"la1":30.2991,"la2":30.254,"lo1":-89.0895,"lo2":-89.0444,"dy":0.0017,"dx":0.0017,"nx":28,"ny":28,"refTime":"2024-03-29T09:00:00:Z","depth":0,"parameterNumber":3,"parameterNumberName":"V-component_of_WINDS"},"data":[0,0,0,0,0,0,0,0,0,0,0,0,0,0,0,0,0,0,0,0,0,0,0,0,0,0,0,0,0,0,0,0,0,0,0,0,0,0,0,0,0,0,0,0,0,0,0,0,0,0,0,0,0,0,0,0,0,0,-1.6199,-1.62,0,-1.6265,-1.6266,-1.6266,-1.6278,-1.6277,-1.6277,-1.6276,-1.6342,-1.6344,-1.6346,0,0,0,0,0,0,0,0,0,0,0,0,0,-1.6081,-1.6083,-1.6199,-1.62,-1.6201,-1.6265,-1.6266,-1.6267,-1.6278,-1.6277,-1.6277,-1.6276,-1.6341,-1.6344,-1.6346,0,0,0,0,0,0,0,0,0,0,0,0,0,-1.6138,-1.6084,-1.6199,-1.6214,-1.6216,-1.6265,-1.6266,-1.6267,-1.6278,-1.6277,-1.6277,-1.6276,-1.634,-1.6344,-1.6347,-1.6384,0,0,-1.6357,-1.6359,0,0,0,0,0,0,0,0,-1.6135,-1.6142,-1.6211,-1.6213,-1.6216,-1.6262,-1.6248,-1.6306,-1.6278,-1.6255,-1.6276,-1.6275,-1.6316,-1.6321,-1.6335,-1.6387,-1.639,-1.6357,-1.636,-1.6361,-1.6362,0,0,0,0,0,0,0,-1.6131,-1.6139,-1.6225,-1.6212,-1.6215,-1.6217,-1.6224,-1.6259,-1.6289,-1.6257,-1.6258,-1.6265,-1.6317,-1.6332,-1.6337,-1.6391,-1.6357,-1.636,-1.6362,-1.6364,-1.6476,-1.6477,0,0,0,0,0,0,-1.6124,-1.6136,-1.6223,-1.6227,-1.6172,-1.622,-1.6228,-1.6248,-1.6289,-1.6294,-1.6266,-1.6266,-1.6327,-1.6333,-1.6339,-1.6385,-1.6361,-1.6364,-1.6366,-1.6475,-1.6476,-1.6477,0,0,0,0,0,0,-1.6122,-1.6132,-1.622,-1.6182,-1.6193,-1.6223,-1.6245,-1.625,-1.6265,-1.6296,-1.6301,-1.6276,-1.6326,-1.6335,-1.6373,-1.6388,-1.6366,-1.6369,-1.6474,-1.6475,-1.6477,-1.6477,0,0,0,0,0,0,-1.6118,-1.6131,-1.6146,-1.6182,-1.6195,-1.6253,-1.6246,-1.6252,-1.6271,-1.6271,-1.6307,-1.6312,-1.6326,-1.6368,-1.6376,-1.6392,-1.6371,-1.6473,-1.6475,-1.6476,-1.6476,-1.6479,-1.6481,0,0,0,0,0,-1.6114,-1.6143,-1.6147,-1.6157,-1.6215,-1.6254,-1.6262,-1.6279,-1.6272,-1.6287,-1.6307,-1.6311,-1.6385,-1.6372,-1.6381,-1.6398,-1.6472,-1.6474,-1.6476,-1.6475,-1.6478,-1.6481,0,0,0,0,0,0,-1.6107,-1.6148,-1.6152,-1.6194,-1.6221,-1.6256,-1.6275,-1.6281,-1.631,-1.6308,-1.6328,-1.6335,-1.6373,-1.6389,-1.6374,-1.6436,-1.6428,-1.6432,-1.6424,-1.6427,-1.6429,-1.6424,-1.6374,0,0,0,0,0,-1.6111,-1.614,-1.6174,-1.6207,-1.6221,-1.6246,-1.6264,-1.6274,-1.6302,-1.6313,-1.6336,-1.6362,-1.6391,-1.641,-1.6439,-1.6479,-1.6486,-1.6495,-1.6497,-1.6499,-1.6502,-1.6524,-1.6528,-1.6484,-1.6484,-1.6484,0,0,-1.6118,-1.6144,-1.6161,-1.6207,-1.6229,-1.6258,-1.6255,-1.6286,-1.6308,-1.6318,-1.6355,-1.6373,-1.6403,-1.6443,-1.6461,-1.6458,-1.6516,-1.6502,-1.6503,-1.6505,-1.6526,-1.6531,-1.6534,-1.6486,-1.6486,-1.6485,0,0,-1.6146,-1.6169,-1.6199,-1.6221,-1.6254,-1.6271,-1.6278,-1.6313,-1.6325,-1.6363,-1.6371,-1.6397,-1.6447,-1.6468,-1.6485,-1.6521,-1.6525,-1.653,-1.6542,-1.6563,-1.6566,-1.6569,-1.6581,-1.6585,-1.6533,-1.6533,-1.6533,0,-1.615,-1.6195,-1.6214,-1.6244,-1.6264,-1.6275,-1.6305,-1.6326,-1.6366,-1.6379,-1.6375,-1.6438,-1.6459,-1.6503,-1.6512,-1.6526,-1.6534,-1.6526,-1.6564,-1.6568,-1.6571,-1.6582,-1.6587,-1.6534,-1.6534,-1.6534,-1.6533,0,-1.6199,-1.623,-1.625,-1.6289,-1.6311,-1.6342,-1.6364,-1.6384,-1.6393,-1.6409,-1.6448,-1.6474,-1.6508,-1.6519,-1.6528,-1.6564,-1.6561,-1.6561,-1.6553,-1.6575,-1.6586,-1.6591,-1.6534,-1.6534,-1.6534,-1.6534,0,0,-1.6224,-1.6273,-1.628,-1.6298,-1.6335,-1.6359,-1.639,-1.6424,-1.644,-1.6468,-1.6493,-1.6535,-1.6535,-1.6555,-1.6566,-1.6584,-1.661,-1.6581,-1.6582,-1.6585,-1.6651,-1.6651,-1.6655,-1.6614,-1.6615,-1.6615,-1.6648,0,-1.6255,-1.6311,-1.6328,-1.6374,-1.6403,-1.6414,-1.644,-1.6466,-1.6482,-1.6508,-1.6526,-1.6555,-1.6553,-1.6565,-1.6584,-1.6603,-1.6623,-1.6601,-1.6636,-1.6638,-1.6628,-1.6662,-1.6661,-1.6691,-1.6653,-1.6653,-1.6654,0,-1.63,-1.6328,-1.6377,-1.6411,-1.6423,-1.6447,-1.6479,-1.6504,-1.6533,-1.6544,-1.6566,-1.6576,-1.6607,-1.6598,-1.6641,-1.6625,-1.6641,-1.6653,-1.6654,-1.6657,-1.6646,-1.6665,-1.6701,-1.6705,-1.6661,-1.6661,-1.666,0,-1.6312,-1.6363,-1.6399,-1.6414,-1.6454,-1.647,-1.6487,-1.6516,-1.6535,-1.6563,-1.6575,-1.6606,-1.6623,-1.6646,-1.6664,-1.6656,-1.6705,-1.6698,-1.6714,-1.6714,-1.6723,-1.6722,-1.6762,-1.6735,-1.6735,-1.6735,-1.6735,0,-1.6345,-1.6374,-1.6405,-1.6426,-1.6459,-1.6479,-1.6511,-1.6529,-1.6554,-1.6579,-1.659,-1.6613,-1.6636,-1.6661,-1.6675,-1.6709,-1.6716,-1.6725,-1.6728,-1.6724,-1.6722,-1.6733,-1.6731,-1.6736,-1.6736,-1.6735,-1.6735,0,-1.6364,-1.6386,-1.6425,-1.646,-1.647,-1.6492,-1.6522,-1.6543,-1.656,-1.6592,-1.66,-1.6626,-1.6657,-1.6678,-1.6717,-1.6726,-1.6762,-1.6765,-1.6753,-1.6754,-1.6769,-1.6767,-1.6816,-1.6823,-1.6792,-1.6793,-1.6793,0,-1.6383,-1.6406,-1.6443,-1.6461,-1.6479,-1.6508,-1.6527,-1.6547,-1.6567,-1.6602,-1.6618,-1.665,-1.6677,-1.6726,-1.6748,-1.6778,-1.6781,-1.6797,-1.6786,-1.678,-1.6781,-1.6779,-1.6781,-1.6798,-1.6798,-1.6798,-1.6798,0,-1.6415,-1.6424,-1.6452,-1.6484,-1.6508,-1.6533,-1.6559,-1.6573,-1.6598,-1.6619,-1.6651,-1.6672,-1.6712,-1.6743,-1.6776,-1.6793,-1.6799,-1.6802,-1.6807,-1.6802,-1.6793,-1.6797,-1.6757,-1.68,-1.68,-1.68,-1.68,-1.68,-1.6434,-1.6454,-1.6484,-1.6515,-1.6537,-1.656,-1.6582,-1.6602,-1.6629,-1.6664,-1.6674,-1.6707,-1.6735,-1.6779,-1.6797,-1.6823,-1.6821,-1.6829,-1.6831,-1.6832,-1.6832,-1.679,-1.6829,-1.6829,-1.6829,-1.6829,-1.6829,0,-1.6465,-1.6485,-1.6513,-1.6549,-1.6573,-1.6579,-1.6607,-1.6627,-1.6656,-1.6682,-1.6708,-1.6744,-1.6775,-1.68,-1.6831,-1.6846,-1.685,-1.6854,-1.6852,-1.6856,-1.6832,-1.6824,-1.685,-1.685,-1.685,-1.685,-1.685,-1.685,-1.6485,-1.6519,-1.6533,-1.6578,-1.6597,-1.6631,-1.6646,-1.6668,-1.6689,-1.6729,-1.6755,-1.6771,-1.6796,-1.6829,-1.6857,-1.6863,-1.6874,-1.6877,-1.6884,-1.686,-1.6858,-1.6856,-1.6848,-1.6879,-1.6879,-1.6906,-1.6906,-1.6906]}]]